TimeEST,TemperatureF,Dew PointF,Humidity,Sea Level PressureIn,VisibilityMPH,Wind Direction,Wind SpeedMPH,Gust SpeedMPH,PrecipitationIn,Events,Conditions,WindDirDegrees,DateUTC
12:53 AM,19.9,15.1,81,30.22,10.0,SSW,5.8,-,N/A,,Clear,210,2013-01-05 05:53:00
1:53 AM,19.9,15.1,81,30.24,9.0,SSW,6.9,-,N/A,,Clear,210,2013-01-05 06:53:00
2:53 AM,18.0,14.0,84,30.27,8.0,SSW,8.1,-,N/A,,Clear,210,2013-01-05 07:53:00
3:53 AM,18.0,14.0,84,30.28,8.0,SSW,5.8,-,N/A,,Clear,210,2013-01-05 08:53:00
4:53 AM,16.0,12.9,88,30.27,7.0,SSW,4.6,-,N/A,,Clear,210,2013-01-05 09:53:00
5:53 AM,15.1,10.9,84,30.29,7.0,South,8.1,-,N/A,,Clear,180,2013-01-05 10:53:00
6:53 AM,17.1,12.9,84,30.29,7.0,South,5.8,-,N/A,,Clear,180,2013-01-05 11:53:00
7:53 AM,15.1,12.0,88,30.31,6.0,South,6.9,-,N/A,,Partly Cloudy,190,2013-01-05 12:53:00
8:53 AM,17.1,14.0,88,30.30,6.0,SSE,4.6,-,N/A,,Mostly Cloudy,160,2013-01-05 13:53:00
9:53 AM,19.0,16.0,88,30.32,6.0,South,5.8,-,N/A,,Partly Cloudy,180,2013-01-05 14:53:00
10:53 AM,23.0,19.9,88,30.31,7.0,SSE,3.5,-,N/A,,Mostly Cloudy,160,2013-01-05 15:53:00
11:09 AM,24.8,19.4,80,30.28,7.0,South,4.6,-,N/A,,Overcast,170,2013-01-05 16:09:00
11:36 AM,26.6,21.2,80,30.26,7.0,SSE,3.5,-,N/A,,Mostly Cloudy,150,2013-01-05 16:36:00
11:53 AM,27.0,21.9,81,30.27,7.0,SSE,4.6,-,N/A,,Scattered Clouds,150,2013-01-05 16:53:00
12:53 PM,30.0,23.0,75,30.22,8.0,South,6.9,-,N/A,,Scattered Clouds,180,2013-01-05 17:53:00
1:53 PM,30.9,23.0,72,30.20,8.0,SSW,12.7,-,N/A,,Mostly Cloudy,200,2013-01-05 18:53:00
2:53 PM,30.9,21.9,69,30.18,8.0,South,10.4,-,N/A,,Mostly Cloudy,180,2013-01-05 19:53:00
3:53 PM,32.0,23.0,69,30.16,9.0,SSE,9.2,-,N/A,,Mostly Cloudy,160,2013-01-05 20:53:00
4:53 PM,30.0,23.0,75,30.15,8.0,South,12.7,-,N/A,,Mostly Cloudy,170,2013-01-05 21:53:00
5:53 PM,30.0,23.0,75,30.13,9.0,SSE,6.9,-,N/A,,Overcast,160,2013-01-05 22:53:00
6:53 PM,30.9,23.0,72,30.13,10.0,South,10.4,-,N/A,,Overcast,190,2013-01-05 23:53:00
7:53 PM,32.0,24.1,73,30.12,10.0,SSW,12.7,-,N/A,,Overcast,200,2013-01-06 00:53:00
8:53 PM,33.1,27.0,78,30.11,6.0,SSW,13.8,-,0.00,Snow,Light Snow,210,2013-01-06 01:53:00
9:02 PM,32.0,26.6,80,30.08,2.0,SSW,13.8,-,0.00,Snow,Light Snow,210,2013-01-06 02:02:00
9:08 PM,32.0,28.4,87,30.08,1.5,SSW,15.0,-,0.00,Snow,Light Snow,210,2013-01-06 02:08:00
9:20 PM,32.0,28.4,87,30.08,2.0,SSW,12.7,-,0.01,Snow,Light Snow,210,2013-01-06 02:20:00
9:25 PM,32.0,28.4,87,30.08,2.0,SSW,11.5,-,0.01,Snow,Light Snow,210,2013-01-06 02:25:00
9:53 PM,32.0,28.9,88,30.10,2.0,SSW,12.7,-,0.01,Snow,Light Snow,210,2013-01-06 02:53:00
10:14 PM,32.0,28.4,87,30.07,2.0,SSW,12.7,-,0.00,Snow,Light Snow,200,2013-01-06 03:14:00
10:22 PM,32.0,28.4,87,30.06,4.0,SSW,10.4,-,0.00,Snow,Light Snow,210,2013-01-06 03:22:00
10:41 PM,32.0,28.4,87,30.06,5.0,South,10.4,-,0.00,Snow,Light Snow,190,2013-01-06 03:41:00
10:53 PM,33.1,28.9,85,30.09,6.0,SSW,12.7,-,0.00,,Overcast,200,2013-01-06 03:53:00
11:41 PM,33.8,30.2,87,30.05,6.0,SSW,15.0,-,0.00,Snow,Light Snow,200,2013-01-06 04:41:00
11:53 PM,33.8,28.4,81,-9999,6.0,SSW,15.0,-,N/A,Snow,Light Snow,200,2013-01-06 04:53:00